Regional Weather Roundup
Issued by NWS

Home | Current Version | Previous Version | Graphics & Text | Print | Product List | Glossary On
Versions: 1 2 3 4 5 6 7 8 9 10 11 12 13 14 15 16 17 18 19 20 21 22 23 24 25 26 27 28 29 30 31 32 33 34 35 36 37 38 39 40 41 42 43 44 45 46 47 48 49 50
000
ASUS43 KTOP 281608
RWRKS

WEATHER ROUNDUP FOR KANSAS
NATIONAL WEATHER SERVICE GOODLAND KS
1000 AM CST WED JAN 28 2015

NOTE:  "FAIR" INDICATES FEW OR NO CLOUDS BELOW 12,000 FEET WITH NO
SIGNIFICANT WEATHER AND/OR OBSTRUCTIONS TO VISIBILITY.

KSZ001>006-013>018-027>032-041>047-281700-
NORTHWEST KANSAS

CITY           SKY/WX    TMP DP  RH WIND       PRES   REMARKS
GOODLAND       CLOUDY    45  32  60 NW13      29.97S
HAYS           PTSUNNY   54  32  43 NW13      29.85S
HILL CITY      CLOUDY    57  33  40 NW22G36   29.86F
RUSSELL        PTSUNNY   49  35  58 W10       29.82F
$$

KSZ061>065-074>080-084>089-281700-
SOUTHWEST KANSAS

CITY           SKY/WX    TMP DP  RH WIND       PRES   REMARKS
DODGE CITY     CLOUDY    52  32  46 NW15      29.90R
ELKHART          N/A     57  29  34 N13         N/A
GARDEN CITY    CLOUDY    46  31  55 NW15      29.94R
LIBERAL        CLOUDY    52  36  54 NW22      29.98R
PRATT          MOSUNNY   55  36  47 W14       29.87R
$$

KSZ066>073-081>083-090>101-281700-
SOUTHEAST KANSAS

CITY           SKY/WX    TMP DP  RH WIND       PRES   REMARKS
CHANUTE        SUNNY     58  39  49 S18       29.96F
COFFEYVILLE    SUNNY     60  38  43 S17       29.98F
HUTCHINSON     SUNNY     57  37  47 S14       29.85F
MEDICINE LODGE   N/A     54  36  50 S8        29.87F
NEWTON         SUNNY     59  36  41 SW21      29.88S
PARSONS        SUNNY     61  39  44 S14       29.98F
WICHITA INTL   MOSUNNY   57  38  48 S15       29.88F
WICHITA JABRA  SUNNY     59  37  44 S20G25    29.87F
WICHITA MCCONL SUNNY     59  38  45 S18       29.88F
WINFIELD       SUNNY     65  31  28 S20G30    29.92F
$$

KSZ007>012-019>026-033>040-048>060-102>105-281700-
NORTHEAST KANSAS

CITY           SKY/WX    TMP DP  RH WIND       PRES   REMARKS
CONCORDIA      MOSUNNY   53  36  52 S15       29.78F
EMPORIA        SUNNY     53  38  56 S20       29.87F
LAWRENCE       SUNNY     54  37  52 SE12      29.90F
MANHATTAN      SUNNY     54  38  54 S6        29.84R
MARYSVILLE     MOSUNNY   52  36  54 S10       29.82F
OLATHE IND     SUNNY     53  36  52 S13       29.93R
OLATHE EXE     SUNNY     55  37  50 S12G22    29.92S
SALINA         SUNNY     55  36  48 SW13      29.84S
TOPEKA BILLARD MOSUNNY   55  38  52 S7        29.88F
TOPEKA FORBES  MOSUNNY   56  38  50 S13       29.87F
$$


USA.gov is the U.S. government's official web portal to all federal, state and local government web resources and services.